[[{"header":{"parameterUnit":"m.s-1","parameterCategory":1,"la1":30.2991,"la2":30.254,"lo1":-89.0895,"lo2":-89.0444,"dy":0.0017,"dx":0.0017,"nx":28,"ny":28,"refTime":"2024-06-30T03:00:00:Z","depth":0,"parameterNumber":2,"parameterNumberName":"U-component_of_WINDS"},"data":[0,0,0,0,0,0,0,0,0,0,0,0,0,0,0,0,0,0,0,0,0,0,0,0,0,0,0,0,0,0,0,0,0,0,0,0,0,0,0,0,0,0,0,0,0,0,0,0,0,0,0,0,0,0,0,0,0,0,3.5812,3.5813,0,3.5988,3.599,3.5992,3.5994,3.5991,3.5989,3.5987,3.6167,3.6174,3.6181,0,0,0,0,0,0,0,0,0,0,0,0,0,3.5476,3.5482,3.5811,3.5814,3.5816,3.5987,3.599,3.5992,3.5994,3.5991,3.5989,3.5986,3.6165,3.6173,3.6181,0,0,0,0,0,0,0,0,0,0,0,0,0,3.5634,3.5484,3.5811,3.5837,3.5842,3.5987,3.599,3.5993,3.5995,3.5991,3.5988,3.5985,3.6162,3.6172,3.6183,3.6313,0,0,3.6214,3.6218,0,0,0,0,0,0,0,0,3.5625,3.5646,3.5831,3.5836,3.5841,3.5965,3.5937,3.61,3.5995,3.5937,3.5987,3.5983,3.6103,3.6118,3.6158,3.6321,3.6329,3.6215,3.6221,3.6226,3.6229,0,0,0,0,0,0,0,3.5614,3.5638,3.5881,3.5834,3.584,3.584,3.5859,3.5968,3.6036,3.5941,3.5942,3.5963,3.6105,3.6148,3.6162,3.6332,3.6215,3.6224,3.623,3.6234,3.6609,3.6612,0,0,0,0,0,0,3.5597,3.5629,3.5875,3.5886,3.5722,3.5849,3.587,3.5929,3.6035,3.6048,3.5965,3.5962,3.6132,3.615,3.6169,3.6326,3.6226,3.6235,3.6241,3.6605,3.6609,3.6613,0,0,0,0,0,0,3.559,3.5619,3.5868,3.5758,3.579,3.5858,3.5924,3.5934,3.5977,3.6053,3.6065,3.5997,3.613,3.6154,3.6277,3.6333,3.624,3.6249,3.66,3.6606,3.6611,3.6644,0,0,0,0,0,0,3.5581,3.5617,3.5668,3.5759,3.5796,3.5974,3.5928,3.594,3.5995,3.5993,3.6086,3.6099,3.6129,3.6261,3.6287,3.6345,3.6257,3.6596,3.6603,3.661,3.6638,3.665,3.666,0,0,0,0,0,3.5569,3.567,3.567,3.57,3.586,3.5977,3.5998,3.6031,3.6,3.6051,3.6099,3.6096,3.6323,3.6274,3.6303,3.6365,3.6592,3.6601,3.6609,3.6633,3.6648,3.666,0,0,0,0,0,0,3.5584,3.5683,3.5684,3.5818,3.5889,3.5977,3.6043,3.6046,3.6127,3.6121,3.6159,3.6181,3.6302,3.6346,3.629,3.6496,3.6454,3.6468,3.6462,3.6477,3.6487,3.6473,3.6266,0,0,0,0,0,3.5603,3.569,3.5771,3.5882,3.5917,3.5974,3.6026,3.6045,3.612,3.615,3.6208,3.6281,3.6368,3.6425,3.651,3.6645,3.6664,3.6702,3.6713,3.6722,3.6734,3.6806,3.6823,3.6641,3.6641,3.6641,0,0,3.5643,3.5708,3.576,3.5887,3.5944,3.6032,3.5999,3.6094,3.616,3.6165,3.6283,3.6328,3.6412,3.654,3.66,3.6581,3.6788,3.6733,3.6739,3.6746,3.6816,3.6833,3.6849,3.6647,3.6646,3.6645,0,0,3.5761,3.5819,3.5917,3.5974,3.6061,3.6098,3.6121,3.6209,3.6238,3.6358,3.6363,3.6441,3.6592,3.6651,3.67,3.6838,3.6837,3.6865,3.6922,3.6992,3.7006,3.7019,3.7066,3.7083,3.6877,3.6877,3.6877,0,3.5799,3.5932,3.5966,3.6061,3.6116,3.6124,3.6222,3.6277,3.6387,3.6424,3.6401,3.6589,3.6646,3.6787,3.6821,3.6862,3.6888,3.6854,3.7002,3.7015,3.7027,3.7072,3.709,3.688,3.6879,3.6879,3.6879,0,3.5975,3.6067,3.6135,3.624,3.6303,3.6399,3.6446,3.6506,3.6519,3.6558,3.6678,3.6747,3.6845,3.688,3.6896,3.7024,3.7009,3.6994,3.6952,3.7047,3.7089,3.7107,3.6883,3.6882,3.6882,3.6881,0,0,3.6107,3.6228,3.6253,3.6299,3.6395,3.6467,3.6563,3.6658,3.6707,3.6783,3.6863,3.699,3.6975,3.7032,3.7053,3.7115,3.7217,3.7092,3.7095,3.7111,3.736,3.7368,3.7388,3.7218,3.7221,3.7224,3.7352,0,3.6233,3.6403,3.6435,3.6583,3.6667,3.6676,3.6759,3.6827,3.6865,3.6942,3.6985,3.7073,3.7049,3.7082,3.7144,3.7191,3.7267,3.7183,3.7291,3.7294,3.7267,3.7411,3.7422,3.7539,3.7369,3.7372,3.7374,0,3.6403,3.6481,3.6637,3.6719,3.6756,3.683,3.6919,3.6993,3.7069,3.7092,3.7154,3.7169,3.7267,3.7222,3.7358,3.73,3.7346,3.7376,3.7381,3.7391,3.7338,3.7422,3.7577,3.7594,3.7401,3.7399,3.7397,0,3.648,3.6625,3.6736,3.6776,3.6876,3.6928,3.6972,3.7045,3.7099,3.7177,3.7212,3.7301,3.7349,3.7417,3.7454,3.7418,3.7586,3.7545,3.7607,3.7606,3.7641,3.7638,3.7803,3.7674,3.7674,3.7674,3.7673,0,3.6616,3.671,3.6772,3.684,3.6945,3.6982,3.7085,3.7128,3.7193,3.7269,3.7283,3.7354,3.74,3.7477,3.7507,3.7613,3.7636,3.7657,3.7663,3.7654,3.7651,3.7683,3.7675,3.7678,3.7677,3.7676,3.7676,0,3.672,3.6765,3.6887,3.6971,3.6994,3.7068,3.7139,3.7205,3.7244,3.734,3.7364,3.7424,3.7516,3.756,3.7675,3.7695,3.7814,3.7817,3.7788,3.779,3.7849,3.7842,3.8039,3.8065,3.7921,3.7923,3.7924,0,3.6803,3.6875,3.6966,3.7018,3.7063,3.7147,3.7202,3.724,3.7297,3.7388,3.7443,3.7535,3.761,3.7756,3.781,3.7897,3.79,3.7963,3.7913,3.7901,3.7898,3.7892,3.7898,3.7971,3.7972,3.7973,3.7974,0,3.6944,3.6962,3.7041,3.7128,3.7193,3.7264,3.7333,3.7374,3.7424,3.7487,3.758,3.7639,3.7754,3.7845,3.7935,3.798,3.7985,3.799,3.8008,3.7999,3.7978,3.7988,3.781,3.7985,3.7984,3.7983,3.7982,3.7982,3.7038,3.7102,3.7176,3.7263,3.7318,3.7382,3.7448,3.7494,3.7572,3.7669,3.7687,3.7785,3.7858,3.798,3.8027,3.8104,3.809,3.8118,3.8124,3.813,3.8131,3.7968,3.8121,3.8121,3.8121,3.8121,3.8121,0,3.7178,3.7225,3.7305,3.7401,3.7469,3.7468,3.7544,3.76,3.7687,3.7754,3.7828,3.7934,3.8021,3.8082,3.817,3.822,3.8224,3.8242,3.8237,3.8247,3.8141,3.8114,3.8237,3.8237,3.8237,3.8237,3.8236,3.8236,3.7259,3.7365,3.7392,3.7527,3.7574,3.767,3.7713,3.7771,3.7825,3.7942,3.8015,3.8053,3.8117,3.821,3.829,3.8306,3.8336,3.8354,3.8368,3.8267,3.8255,3.8243,3.8219,3.8361,3.8361,3.8468,3.8469,3.847]},{"header":{"parameterUnit":"m.s-1","parameterCategory":1,"la1":30.2991,"la2":30.254,"lo1":-89.0895,"lo2":-89.0444,"dy":0.0017,"dx":0.0017,"nx":28,"ny":28,"refTime":"2024-06-30T03:00:00:Z","depth":0,"parameterNumber":3,"parameterNumberName":"V-component_of_WINDS"},"data":[0,0,0,0,0,0,0,0,0,0,0,0,0,0,0,0,0,0,0,0,0,0,0,0,0,0,0,0,0,0,0,0,0,0,0,0,0,0,0,0,0,0,0,0,0,0,0,0,0,0,0,0,0,0,0,0,0,0,-0.0389,-0.0389,0,-0.0322,-0.0321,-0.032,-0.0306,-0.0307,-0.0308,-0.0308,-0.0236,-0.0234,-0.0232,0,0,0,0,0,0,0,0,0,0,0,0,0,-0.0506,-0.0504,-0.039,-0.0389,-0.0388,-0.0322,-0.0321,-0.032,-0.0306,-0.0307,-0.0308,-0.0308,-0.0237,-0.0234,-0.0231,0,0,0,0,0,0,0,0,0,0,0,0,0,-0.0448,-0.0503,-0.039,-0.0373,-0.0371,-0.0322,-0.0321,-0.032,-0.0306,-0.0307,-0.0308,-0.0309,-0.0238,-0.0235,-0.0231,-0.0193,0,0,-0.022,-0.0218,0,0,0,0,0,0,0,0,-0.0452,-0.0444,-0.0376,-0.0374,-0.0372,-0.0323,-0.0336,-0.0277,-0.0306,-0.0331,-0.0308,-0.0309,-0.0264,-0.0259,-0.0244,-0.0189,-0.0186,-0.022,-0.0217,-0.0216,-0.0215,0,0,0,0,0,0,0,-0.0456,-0.0447,-0.0363,-0.0376,-0.0373,-0.0369,-0.0361,-0.0324,-0.0294,-0.0329,-0.0328,-0.032,-0.0263,-0.0248,-0.0242,-0.0185,-0.022,-0.0217,-0.0214,-0.0213,-0.0096,-0.0095,0,0,0,0,0,0,-0.0463,-0.045,-0.0365,-0.0361,-0.0415,-0.0366,-0.0358,-0.0338,-0.0294,-0.0288,-0.0319,-0.0319,-0.0253,-0.0247,-0.024,-0.0192,-0.0216,-0.0213,-0.021,-0.0097,-0.0096,-0.0095,0,0,0,0,0,0,-0.0465,-0.0455,-0.0367,-0.0405,-0.0394,-0.0363,-0.0341,-0.0336,-0.0321,-0.0287,-0.0281,-0.0309,-0.0254,-0.0245,-0.0205,-0.0189,-0.0211,-0.0208,-0.0098,-0.0097,-0.0095,-0.0097,0,0,0,0,0,0,-0.0469,-0.0456,-0.0442,-0.0405,-0.0392,-0.0334,-0.034,-0.0334,-0.0315,-0.0314,-0.0276,-0.027,-0.0254,-0.021,-0.0201,-0.0185,-0.0205,-0.0099,-0.0097,-0.0096,-0.0098,-0.0095,-0.0093,0,0,0,0,0,-0.0473,-0.0444,-0.0441,-0.0431,-0.0373,-0.0333,-0.0326,-0.0308,-0.0314,-0.0298,-0.0277,-0.0272,-0.0193,-0.0206,-0.0196,-0.0178,-0.01,-0.0098,-0.0096,-0.0099,-0.0096,-0.0093,0,0,0,0,0,0,-0.0479,-0.0439,-0.0435,-0.0394,-0.0367,-0.0331,-0.0311,-0.0305,-0.0275,-0.0276,-0.0255,-0.0246,-0.0207,-0.0189,-0.0204,-0.0139,-0.0147,-0.0142,-0.0152,-0.0149,-0.0147,-0.0152,-0.0202,0,0,0,0,0,-0.0476,-0.0448,-0.0414,-0.0381,-0.0368,-0.0342,-0.0324,-0.0313,-0.0284,-0.0272,-0.0248,-0.0219,-0.0188,-0.0168,-0.0137,-0.0095,-0.0087,-0.0078,-0.0076,-0.0075,-0.0071,-0.0047,-0.0043,-0.0088,-0.0088,-0.0088,0,0,-0.0469,-0.0443,-0.0426,-0.0381,-0.0359,-0.033,-0.0332,-0.0301,-0.0279,-0.0267,-0.0228,-0.0209,-0.0176,-0.0135,-0.0115,-0.0118,-0.0057,-0.0072,-0.0071,-0.0068,-0.0045,-0.004,-0.0037,-0.0086,-0.0087,-0.0087,0,0,-0.044,-0.0418,-0.0388,-0.0366,-0.0333,-0.0316,-0.0309,-0.0274,-0.0262,-0.0222,-0.0213,-0.0186,-0.0133,-0.011,-0.0091,-0.0055,-0.0048,-0.0045,-0.0033,-0.0011,-0.0007,-0.0004,0.0009,0.0014,-0.0042,-0.0042,-0.0042,0,-0.0434,-0.039,-0.0373,-0.0342,-0.0323,-0.0312,-0.0281,-0.0261,-0.0219,-0.0205,-0.021,-0.0143,-0.012,-0.0073,-0.0065,-0.005,-0.0041,-0.0049,-0.0009,-0.0006,-0.0003,0.001,0.0015,-0.0042,-0.0042,-0.0042,-0.0042,0,-0.0385,-0.0355,-0.0334,-0.0296,-0.0274,-0.0243,-0.0221,-0.0201,-0.0192,-0.0174,-0.0134,-0.0107,-0.007,-0.0059,-0.0049,-0.0011,-0.0013,-0.0014,-0.0021,0.0002,0.0014,0.0019,-0.0041,-0.0042,-0.0042,-0.0042,0,0,-0.0357,-0.031,-0.0303,-0.0285,-0.0249,-0.0224,-0.0193,-0.0159,-0.0142,-0.0114,-0.0087,-0.0043,-0.0043,-0.0022,-0.001,0.001,0.0037,0.0008,0.0009,0.0013,0.0082,0.0082,0.0087,0.0041,0.0042,0.0043,0.0079,0,-0.0324,-0.0269,-0.0253,-0.0206,-0.0177,-0.0167,-0.014,-0.0115,-0.0098,-0.0071,-0.0052,-0.0021,-0.0024,-0.0011,0.0009,0.003,0.0052,0.0027,0.0067,0.0068,0.0059,0.0094,0.0095,0.0128,0.0084,0.0085,0.0085,0,-0.0277,-0.0249,-0.02,-0.0167,-0.0155,-0.0131,-0.0098,-0.0072,-0.0043,-0.0032,-0.0009,0.0001,0.0034,0.0024,0.007,0.0053,0.0071,0.0083,0.0085,0.009,0.0079,0.0101,0.0138,0.0143,0.0093,0.0093,0.0092,0,-0.0261,-0.0211,-0.0175,-0.0161,-0.0122,-0.0105,-0.0088,-0.006,-0.004,-0.0011,0.0002,0.0034,0.0052,0.0077,0.0096,0.0087,0.014,0.0132,0.0151,0.015,0.0162,0.0162,0.0204,0.0172,0.0172,0.0172,0.0172,0,-0.0225,-0.0195,-0.0168,-0.0145,-0.0112,-0.0094,-0.0061,-0.0043,-0.0018,0.0008,0.0019,0.0043,0.0066,0.0094,0.0108,0.0145,0.0153,0.0163,0.0166,0.0162,0.0161,0.0174,0.0173,0.0173,0.0173,0.0173,0.0173,0,-0.0201,-0.0182,-0.0142,-0.0109,-0.01,-0.0076,-0.0048,-0.0025,-0.0009,0.0024,0.0033,0.0059,0.0092,0.0113,0.0155,0.0165,0.0204,0.0207,0.0194,0.0196,0.0214,0.0212,0.0267,0.0275,0.0237,0.0238,0.0238,0,-0.0179,-0.0156,-0.0121,-0.0103,-0.0086,-0.0057,-0.0037,-0.0019,0.0001,0.0036,0.0054,0.0087,0.0115,0.0167,0.019,0.0222,0.0226,0.0243,0.0231,0.0226,0.0227,0.0226,0.0228,0.0246,0.0246,0.0246,0.0246,0,-0.0142,-0.0133,-0.0106,-0.0075,-0.0052,-0.0026,-0.0001,0.0013,0.0036,0.0058,0.0092,0.0113,0.0155,0.0188,0.0222,0.0241,0.0248,0.025,0.0256,0.0252,0.0244,0.0249,0.02,0.0249,0.0248,0.0248,0.0248,0.0248,-0.0117,-0.0096,-0.0069,-0.0038,-0.0017,0.0006,0.0028,0.0047,0.0075,0.011,0.0119,0.0154,0.0183,0.0229,0.0248,0.0276,0.0273,0.0282,0.0285,0.0287,0.0287,0.0239,0.0282,0.0282,0.0282,0.0282,0.0282,0,-0.0079,-0.0061,-0.0033,0.0002,0.0025,0.0029,0.0057,0.0077,0.0107,0.0133,0.0159,0.0197,0.0229,0.0255,0.0288,0.0305,0.0309,0.0313,0.0312,0.0316,0.0287,0.0279,0.0309,0.0309,0.0309,0.0309,0.0309,0.0309,-0.0056,-0.0021,-0.0009,0.0037,0.0055,0.0088,0.0104,0.0126,0.0146,0.0188,0.0214,0.023,0.0256,0.0291,0.032,0.0327,0.0339,0.0342,0.0349,0.0322,0.0319,0.0316,0.0308,0.0344,0.0344,0.0377,0.0377,0.0377]}]]